When you browse on this site, cookies collect data to enhance your experience and personalize the content and advertising you see.
Visit our Privacy Policy to learn more. By continuing to use the site, you agree to this use of cookies and data.
  • In Belgien
  • Länderverzeichnis
  • Für 7 Tage
  • Wassertemperatur
  • Satellitenkarten
  • Wetterkarte
  • Widgets
  • user-avatar
    Anmelden

    Stündliche Wetter Galata

    Heute, 22 Februar, Freitag

    Zeit Temperatur Niederschläge Wind Luftdruck Luftfeuchtigkeit
    00:00 +7°C° 0 mm 3 m/S 760 mmHg 67%
    01:00 +5°C° 0 mm 3 m/S 760 mmHg 68%
    02:00 +5°C° 0 mm 3 m/S 760 mmHg 67%
    03:00 +5°C° 0 mm 3 m/S 759 mmHg 67%
    04:00 +4°C° 0 mm 3 m/S 759 mmHg 67%
    05:00 +4°C° 0 mm 3 m/S 758 mmHg 68%
    06:00 +4°C° 0 mm 3 m/S 758 mmHg 67%
    07:00 +4°C° 0 mm 4 m/S 757 mmHg 66%
    08:00 +5°C° 0 mm 4 m/S 757 mmHg 65%
    09:00 +6°C° 0 mm 5 m/S 757 mmHg 60%
    10:00 +8°C° 0 mm 5 m/S 756 mmHg 56%
    11:00 +9°C° 0 mm 6 m/S 756 mmHg 51%
    12:00 +9°C° 0 mm 5 m/S 755 mmHg 51%
    13:00 +10°C° 0 mm 5 m/S 755 mmHg 50%
    14:00 +10°C° 0 mm 5 m/S 754 mmHg 50%
    15:00 +9°C° 0.2 mm 5 m/S 754 mmHg 54%
    16:00 +8°C° 0.2 mm 5 m/S 754 mmHg 59%
    17:00 +7°C° 0.2 mm 4 m/S 754 mmHg 63%
    18:00 +6°C° 0.5 mm 5 m/S 754 mmHg 68%
    19:00 +5°C° 0.5 mm 7 m/S 755 mmHg 73%
    20:00 +4°C° 0.5 mm 8 m/S 755 mmHg 78%
    21:00 +1°C° 0.5 mm 10 m/S 756 mmHg 79%
    22:00 -2°C° 0.5 mm 12 m/S 757 mmHg 80%
    23:00 -4°C° 0.5 mm 14 m/S 757 mmHg 81%

    Morgen, 23 Februar, Samstag

    Zeit Temperatur Niederschläge Wind Luftdruck Luftfeuchtigkeit
    00:00 -5°C° 0.2 mm 13 m/S 758 mmHg 79%
    01:00 -6°C° 0.2 mm 13 m/S 759 mmHg 76%
    02:00 -7°C° 0.2 mm 13 m/S 759 mmHg 74%
    03:00 -7°C° 0.1 mm 13 m/S 760 mmHg 71%
    04:00 -9°C° 0.1 mm 14 m/S 761 mmHg 68%
    05:00 -10°C° 0.1 mm 14 m/S 762 mmHg 66%
    06:00 -10°C° 0.1 mm 14 m/S 763 mmHg 64%
    07:00 -10°C° 0.1 mm 14 m/S 764 mmHg 63%
    08:00 -10°C° 0.1 mm 13 m/S 764 mmHg 62%
    09:00 -9°C° 0 mm 13 m/S 765 mmHg 60%
    10:00 -8°C° 0 mm 12 m/S 766 mmHg 58%
    11:00 -7°C° 0 mm 12 m/S 766 mmHg 56%
    12:00 -6°C° 0 mm 11 m/S 767 mmHg 55%
    13:00 -6°C° 0 mm 11 m/S 767 mmHg 54%
    14:00 -4°C° 0 mm 11 m/S 767 mmHg 52%
    15:00 -4°C° 0 mm 10 m/S 767 mmHg 54%
    16:00 -5°C° 0 mm 10 m/S 768 mmHg 55%
    17:00 -5°C° 0 mm 10 m/S 768 mmHg 56%
    18:00 -5°C° 0 mm 10 m/S 768 mmHg 58%
    19:00 -5°C° 0 mm 10 m/S 769 mmHg 59%
    20:00 -7°C° 0 mm 10 m/S 769 mmHg 61%
    21:00 -7°C° 0 mm 10 m/S 769 mmHg 62%
    22:00 -7°C° 0 mm 10 m/S 770 mmHg 63%
    23:00 -6°C° 0 mm 9 m/S 770 mmHg 64%

    übermorgen, 24 Februar, Sonntag

    Zeit Temperatur Niederschläge Wind Luftdruck Luftfeuchtigkeit
    00:00 -8°C° 0 mm 9 m/S 770 mmHg 64%
    01:00 -8°C° 0 mm 9 m/S 770 mmHg 65%
    02:00 -8°C° 0 mm 9 m/S 771 mmHg 65%
    03:00 -8°C° 0 mm 9 m/S 770 mmHg 66%
    04:00 -8°C° 0 mm 9 m/S 770 mmHg 66%
    05:00 -7°C° 0 mm 8 m/S 770 mmHg 67%
    06:00 -7°C° 0 mm 8 m/S 771 mmHg 66%
    07:00 -7°C° 0 mm 8 m/S 771 mmHg 65%
    08:00 -7°C° 0 mm 8 m/S 771 mmHg 64%
    09:00 -6°C° 0 mm 8 m/S 771 mmHg 59%
    10:00 -5°C° 0 mm 8 m/S 771 mmHg 54%
    11:00 -3°C° 0 mm 7 m/S 772 mmHg 50%
    12:00 -2°C° 0 mm 7 m/S 771 mmHg 47%
    13:00 -2°C° 0 mm 7 m/S 771 mmHg 44%
    14:00 -1°C° 0 mm 6 m/S 771 mmHg 42%
    15:00 -1°C° 0 mm 6 m/S 771 mmHg 43%
    16:00 -1°C° 0 mm 5 m/S 770 mmHg 44%
    17:00 -1°C° 0 mm 5 m/S 770 mmHg 45%
    18:00 -2°C° 0 mm 5 m/S 771 mmHg 48%
    19:00 -4°C° 0 mm 5 m/S 771 mmHg 50%
    20:00 -4°C° 0 mm 5 m/S 771 mmHg 53%
    21:00 -5°C° 0 mm 5 m/S 771 mmHg 53%
    22:00 -4°C° 0 mm 4 m/S 771 mmHg 53%
    23:00 -4°C° 0 mm 4 m/S 772 mmHg 54%

    25 Februar, Montag

    Zeit Temperatur Niederschläge Wind Luftdruck Luftfeuchtigkeit
    00:00 -4°C° 0 mm 4 m/S 771 mmHg 53%
    01:00 -4°C° 0 mm 4 m/S 771 mmHg 53%
    02:00 -5°C° 0 mm 5 m/S 771 mmHg 53%
    03:00 -5°C° 0 mm 5 m/S 771 mmHg 54%
    04:00 -5°C° 0 mm 5 m/S 771 mmHg 56%
    05:00 -5°C° 0 mm 5 m/S 770 mmHg 57%
    06:00 -5°C° 0 mm 5 m/S 770 mmHg 59%
    07:00 -4°C° 0 mm 5 m/S 770 mmHg 61%
    08:00 -4°C° 0 mm 5 m/S 770 mmHg 63%
    09:00 -1°C° 0 mm 5 m/S 770 mmHg 57%
    10:00 0°C° 0 mm 4 m/S 770 mmHg 51%
    11:00 +3°C° 0 mm 4 m/S 770 mmHg 45%
    12:00 +3°C° 0 mm 4 m/S 769 mmHg 45%
    13:00 +4°C° 0 mm 4 m/S 768 mmHg 45%
    14:00 +5°C° 0 mm 4 m/S 768 mmHg 45%
    15:00 +5°C° 0 mm 4 m/S 767 mmHg 49%
    16:00 +4°C° 0 mm 4 m/S 767 mmHg 52%
    17:00 +4°C° 0 mm 4 m/S 766 mmHg 56%
    18:00 +3°C° 0 mm 4 m/S 766 mmHg 60%
    19:00 +1°C° 0 mm 5 m/S 766 mmHg 64%
    20:00 0°C° 0 mm 5 m/S 766 mmHg 68%
    21:00 -1°C° 0 mm 5 m/S 765 mmHg 69%
    22:00 -1°C° 0 mm 5 m/S 765 mmHg 70%
    23:00 -1°C° 0 mm 5 m/S 765 mmHg 71%

    26 Februar, Dienstag

    Zeit Temperatur Niederschläge Wind Luftdruck Luftfeuchtigkeit
    00:00 -2°C° 0 mm 6 m/S 765 mmHg 71%
    01:00 -2°C° 0 mm 7 m/S 764 mmHg 71%
    02:00 -1°C° 0 mm 7 m/S 764 mmHg 71%
    03:00 -1°C° 0 mm 7 m/S 764 mmHg 74%
    04:00 -1°C° 0 mm 7 m/S 763 mmHg 76%
    05:00 -1°C° 0 mm 7 m/S 763 mmHg 79%
    06:00 -1°C° 0 mm 7 m/S 762 mmHg 79%
    07:00 -1°C° 0 mm 7 m/S 762 mmHg 80%
    08:00 -1°C° 0 mm 7 m/S 762 mmHg 80%
    09:00 0°C° 0 mm 7 m/S 762 mmHg 73%
    10:00 +3°C° 0 mm 7 m/S 761 mmHg 66%
    11:00 +5°C° 0 mm 7 m/S 761 mmHg 58%
    12:00 +5°C° 0 mm 7 m/S 760 mmHg 55%
    13:00 +7°C° 0 mm 6 m/S 759 mmHg 52%
    14:00 +8°C° 0 mm 6 m/S 758 mmHg 49%
    15:00 +8°C° 0 mm 6 m/S 757 mmHg 51%
    16:00 +7°C° 0 mm 6 m/S 757 mmHg 53%
    17:00 +7°C° 0 mm 6 m/S 756 mmHg 55%
    18:00 +5°C° 0 mm 7 m/S 755 mmHg 59%
    19:00 +5°C° 0 mm 8 m/S 755 mmHg 62%
    20:00 +3°C° 0 mm 9 m/S 754 mmHg 66%
    21:00 +3°C° 0 mm 9 m/S 754 mmHg 67%
    22:00 +3°C° 0 mm 9 m/S 754 mmHg 68%
    23:00 +3°C° 0 mm 9 m/S 753 mmHg 68%

    27 Februar, Mittwoch

    Zeit Temperatur Niederschläge Wind Luftdruck Luftfeuchtigkeit
    00:00 +2°C° 0 mm 9 m/S 753 mmHg 71%
    01:00 +2°C° 0 mm 8 m/S 753 mmHg 73%
    02:00 +2°C° 0 mm 7 m/S 753 mmHg 76%
    03:00 +1°C° 0 mm 8 m/S 753 mmHg 73%
    04:00 +1°C° 0 mm 9 m/S 752 mmHg 71%
    05:00 +1°C° 0 mm 10 m/S 752 mmHg 68%
    06:00 +1°C° 0 mm 10 m/S 753 mmHg 68%
    07:00 +1°C° 0 mm 11 m/S 753 mmHg 68%
    08:00 +1°C° 0 mm 11 m/S 753 mmHg 67%
    09:00 +1°C° 0 mm 11 m/S 753 mmHg 65%
    10:00 +2°C° 0 mm 11 m/S 754 mmHg 63%
    11:00 +3°C° 0 mm 10 m/S 754 mmHg 61%
    12:00 +3°C° 0.1 mm 10 m/S 754 mmHg 60%
    13:00 +3°C° 0.1 mm 10 m/S 754 mmHg 58%
    14:00 +5°C° 0.1 mm 10 m/S 754 mmHg 57%
    15:00 +3°C° 0.1 mm 10 m/S 754 mmHg 58%
    16:00 +3°C° 0.1 mm 10 m/S 755 mmHg 59%
    17:00 +3°C° 0.1 mm 10 m/S 755 mmHg 59%
    18:00 +2°C° 0.1 mm 9 m/S 756 mmHg 64%
    19:00 +2°C° 0.1 mm 8 m/S 756 mmHg 68%
    20:00 +1°C° 0.1 mm 8 m/S 757 mmHg 73%
    21:00 +2°C° 0 mm 7 m/S 757 mmHg 75%
    22:00 0°C° 0 mm 7 m/S 757 mmHg 77%
    23:00 +1°C° 0 mm 6 m/S 757 mmHg 79%
    Mehr zeigen